[[{"header":{"parameterUnit":"m.s-1","parameterCategory":2,"la1":30.2991,"la2":30.254,"lo1":-89.0895,"lo2":-89.0444,"dy":0.0017,"dx":0.0017,"nx":28,"ny":28,"refTime":"2023-08-10T09:00:00:Z","depth":"0","parameterNumber":2,"parameterNumberName":"U-component_of_CURRENTS"},"data":[0,0,0,0,0,0,0,0,0,0,0,0,0,0,0,0,0,0,0,0,0,0,0,0,0,0,0,0,0,0,0,0,0,0,0,0,0,0,0,0,0,0,0,0,0,0,0,0,0,0,0,0,0,0,0,0,0,0,0.1296,0.1296,0,0.1284,0.1284,0.1284,0.1295,0.1296,0.1297,0.1298,0.1217,0.1214,0.1211,0,0,0,0,0,0,0,0,0,0,0,0,0,0.1172,0.1175,0.1296,0.1296,0.1296,0.1285,0.1284,0.1283,0.1295,0.1296,0.1297,0.1298,0.1218,0.1215,0.1211,0,0,0,0,0,0,0,0,0,0,0,0,0,0.1197,0.1176,0.1296,0.1303,0.1304,0.1285,0.1284,0.1283,0.1295,0.1296,0.1297,0.1298,0.1219,0.1215,0.1211,0.116,0,0,0.1197,0.1196,0,0,0,0,0,0,0,0,0.1196,0.1201,0.1302,0.1303,0.1304,0.1296,0.1211,0.124,0.1295,0.1294,0.1298,0.1299,0.1238,0.1233,0.1224,0.1156,0.1153,0.1197,0.1194,0.1193,0.1191,0,0,0,0,0,0,0,0.1194,0.1201,0.1287,0.1302,0.1303,0.1254,0.126,0.1216,0.1256,0.1294,0.1296,0.1301,0.1238,0.1228,0.1222,0.1152,0.1197,0.1193,0.1191,0.1189,0.1194,0.1196,0,0,0,0,0,0,0.121,0.12,0.1288,0.1287,0.1256,0.1257,0.1263,0.1294,0.1258,0.1255,0.13,0.1301,0.1235,0.1227,0.1219,0.1298,0.1193,0.1189,0.1186,0.1191,0.1194,0.1197,0,0,0,0,0,0,0.1208,0.1219,0.1288,0.1244,0.125,0.1259,0.1293,0.1293,0.1291,0.1263,0.1259,0.1299,0.1235,0.1225,0.1188,0.129,0.1187,0.1183,0.1188,0.1192,0.1196,0.1366,0,0,0,0,0,0,0.1205,0.1219,0.1242,0.1247,0.1254,0.1283,0.1292,0.1292,0.1293,0.1295,0.126,0.1254,0.1235,0.1195,0.1184,0.1282,0.1179,0.1184,0.119,0.1194,0.1357,0.1376,0.1391,0,0,0,0,0,0.1201,0.123,0.1244,0.1254,0.1288,0.1284,0.1282,0.1287,0.1292,0.1289,0.1268,0.1255,0.1223,0.119,0.1178,0.1278,0.1182,0.1188,0.1194,0.1349,0.1372,0.1391,0,0,0,0,0,0,0.1176,0.1235,0.1249,0.1293,0.1291,0.1287,0.1291,0.1286,0.1267,0.127,0.1242,0.1233,0.1258,0.122,0.1187,0.1297,0.1219,0.1223,0.1342,0.1363,0.138,0.1487,0.1176,0,0,0,0,0,0.1185,0.1237,0.1254,0.1287,0.1292,0.1288,0.1287,0.1288,0.1274,0.1268,0.1248,0.1246,0.1272,0.1273,0.1262,0.128,0.1305,0.1351,0.1368,0.1383,0.1463,0.1553,0.1588,0.1217,0.1217,0.1217,0,0,0.1181,0.1223,0.1248,0.1286,0.129,0.1325,0.129,0.1293,0.1353,0.1258,0.131,0.1281,0.1283,0.1335,0.1348,0.1317,0.1495,0.1391,0.1404,0.1478,0.1564,0.1601,0.1633,0.1222,0.1221,0.122,0,0,0.1209,0.1239,0.1294,0.1308,0.1329,0.1334,0.1338,0.1335,0.1368,0.1377,0.1377,0.1415,0.1381,0.1463,0.1491,0.1589,0.1572,0.157,0.1757,0.1842,0.1874,0.1903,0.1959,0.1991,0.1592,0.1592,0.1592,0,0.1195,0.1289,0.1295,0.1352,0.1386,0.1351,0.1407,0.1436,0.1425,0.1476,0.1416,0.1498,0.1486,0.165,0.1712,0.1644,0.1657,0.1676,0.1869,0.1899,0.1926,0.1975,0.201,0.1601,0.16,0.1599,0.1598,0,0.1276,0.1345,0.137,0.1461,0.1486,0.1512,0.1561,0.1586,0.1597,0.1639,0.1749,0.1738,0.1804,0.1822,0.1805,0.2017,0.195,0.1869,0.1826,0.1975,0.2015,0.2048,0.1614,0.161,0.1608,0.1606,0,0,0.1268,0.1402,0.1415,0.1466,0.1549,0.1557,0.1687,0.1786,0.1866,0.1898,0.2031,0.2138,0.2126,0.2165,0.2153,0.2264,0.2458,0.217,0.217,0.2244,0.2628,0.2625,0.2659,0.239,0.2397,0.2403,0.2571,0,0.1328,0.1444,0.1523,0.1624,0.1676,0.1728,0.1844,0.1933,0.1992,0.209,0.2196,0.2277,0.2262,0.2277,0.241,0.2423,0.2556,0.2421,0.2461,0.2464,0.2459,0.2703,0.2631,0.278,0.2602,0.2608,0.2612,0,0.14,0.1469,0.1581,0.1711,0.1741,0.1797,0.1942,0.2039,0.2214,0.2268,0.2412,0.2444,0.2661,0.2569,0.28,0.2696,0.2727,0.2741,0.2744,0.2729,0.2527,0.2607,0.2846,0.2779,0.2661,0.2657,0.2654,0,0.1371,0.1516,0.1599,0.1639,0.1776,0.1844,0.1916,0.2081,0.2189,0.2371,0.2439,0.2659,0.2744,0.2861,0.294,0.2863,0.3145,0.3006,0.3057,0.3051,0.3006,0.2987,0.3218,0.3221,0.3221,0.322,0.322,0,0.1418,0.148,0.157,0.1603,0.1706,0.1806,0.1937,0.2044,0.2221,0.2362,0.2509,0.2657,0.2823,0.2983,0.3028,0.3184,0.3221,0.3198,0.3149,0.3056,0.304,0.2985,0.2927,0.3226,0.3225,0.3224,0.3223,0,0.1402,0.1462,0.1541,0.1655,0.1693,0.1751,0.1927,0.2025,0.2177,0.2361,0.2429,0.2701,0.2928,0.3081,0.3274,0.3291,0.3366,0.3442,0.3324,0.3263,0.3224,0.3176,0.3321,0.3283,0.3545,0.3547,0.3548,0,0.141,0.1448,0.1541,0.1582,0.1633,0.1733,0.1825,0.1991,0.2102,0.2387,0.248,0.277,0.2979,0.3291,0.3426,0.3577,0.3467,0.3547,0.3436,0.3337,0.3245,0.3109,0.3054,0.3413,0.3413,0.3413,0.3414,0,0.1427,0.1446,0.15,0.1579,0.1646,0.1747,0.187,0.1947,0.2152,0.2306,0.2552,0.2737,0.3099,0.3294,0.3513,0.3576,0.344,0.3556,0.3502,0.3278,0.3103,0.2996,0.3148,0.3415,0.3415,0.3415,0.3415,0.3415,0.1421,0.1468,0.1525,0.1599,0.1664,0.1746,0.1814,0.1942,0.21,0.2304,0.2518,0.2726,0.304,0.3385,0.3472,0.3546,0.3506,0.3457,0.3439,0.3335,0.3244,0.342,0.3588,0.3589,0.359,0.359,0.3591,0,0.1458,0.1511,0.1564,0.1635,0.1674,0.1724,0.1846,0.1903,0.2035,0.2205,0.2402,0.2663,0.293,0.3164,0.3383,0.3384,0.3293,0.3356,0.3147,0.3123,0.3338,0.3277,0.3327,0.3327,0.3327,0.3327,0.3327,0.3327,0.1483,0.1546,0.1575,0.1623,0.1659,0.1714,0.1762,0.184,0.1936,0.208,0.2181,0.2324,0.2643,0.3045,0.3206,0.3209,0.3083,0.3055,0.3055,0.3177,0.3182,0.3187,0.3119,0.3135,0.3135,0.2744,0.2742,0.2739]},{"header":{"parameterUnit":"m.s-1","parameterCategory":2,"la1":30.2991,"la2":30.254,"lo1":-89.0895,"lo2":-89.0444,"dy":0.0017,"dx":0.0017,"nx":28,"ny":28,"refTime":"2023-08-10T09:00:00:Z","depth":"0","parameterNumber":3,"parameterNumberName":"V-component_of_CURRENTS"},"data":[0,0,0,0,0,0,0,0,0,0,0,0,0,0,0,0,0,0,0,0,0,0,0,0,0,0,0,0,0,0,0,0,0,0,0,0,0,0,0,0,0,0,0,0,0,0,0,0,0,0,0,0,0,0,0,0,0,0,-0.0413,-0.0415,0,-0.0562,-0.0563,-0.0565,-0.0606,-0.0605,-0.0604,-0.0603,-0.0625,-0.0627,-0.0628,0,0,0,0,0,0,0,0,0,0,0,0,0,-0.0335,-0.0335,-0.0413,-0.0415,-0.0416,-0.0561,-0.0564,-0.0566,-0.0607,-0.0605,-0.0604,-0.0603,-0.0625,-0.0626,-0.0628,0,0,0,0,0,0,0,0,0,0,0,0,0,-0.0415,-0.0335,-0.0413,-0.0453,-0.0458,-0.0561,-0.0564,-0.0566,-0.0607,-0.0605,-0.0604,-0.0602,-0.0624,-0.0626,-0.0628,-0.0671,0,0,-0.0635,-0.0636,0,0,0,0,0,0,0,0,-0.041,-0.0418,-0.0446,-0.0451,-0.0456,-0.0563,-0.0544,-0.0595,-0.0607,-0.0552,-0.0603,-0.0602,-0.0593,-0.0598,-0.0632,-0.0672,-0.0673,-0.0635,-0.0637,-0.0638,-0.0638,0,0,0,0,0,0,0,-0.0405,-0.0413,-0.0473,-0.0447,-0.0454,-0.0522,-0.0531,-0.0555,-0.0577,-0.0557,-0.056,-0.0574,-0.0595,-0.063,-0.0633,-0.0674,-0.0635,-0.0637,-0.0639,-0.064,-0.0497,-0.0492,0,0,0,0,0,0,-0.0376,-0.0407,-0.0468,-0.0477,-0.0428,-0.0524,-0.0534,-0.0531,-0.058,-0.0587,-0.0576,-0.0576,-0.0627,-0.063,-0.0633,-0.0535,-0.0638,-0.064,-0.0641,-0.0502,-0.0496,-0.049,0,0,0,0,0,0,-0.0374,-0.038,-0.0462,-0.0446,-0.0461,-0.0525,-0.0524,-0.0535,-0.0567,-0.0596,-0.06,-0.0594,-0.0626,-0.063,-0.0616,-0.0541,-0.0641,-0.0643,-0.0508,-0.05,-0.0493,-0.0434,0,0,0,0,0,0,-0.0371,-0.0377,-0.0373,-0.0443,-0.046,-0.0503,-0.0525,-0.0539,-0.0578,-0.0579,-0.0613,-0.0614,-0.0625,-0.0612,-0.0618,-0.0546,-0.0645,-0.0514,-0.0504,-0.0495,-0.0442,-0.0425,-0.041,0,0,0,0,0,-0.0367,-0.0351,-0.0371,-0.038,-0.0449,-0.0502,-0.0518,-0.0562,-0.058,-0.0587,-0.0589,-0.0613,-0.0551,-0.0613,-0.062,-0.0546,-0.0519,-0.0507,-0.0496,-0.0449,-0.0428,-0.041,0,0,0,0,0,0,-0.0307,-0.0356,-0.0379,-0.0377,-0.043,-0.0508,-0.0521,-0.0564,-0.0583,-0.057,-0.0602,-0.0602,-0.0547,-0.0549,-0.0616,-0.046,-0.0518,-0.0507,-0.0479,-0.046,-0.0444,-0.0401,-0.0646,0,0,0,0,0,-0.0295,-0.0299,-0.0361,-0.0363,-0.0382,-0.0458,-0.0489,-0.0517,-0.0546,-0.0557,-0.0578,-0.0553,-0.0508,-0.0491,-0.047,-0.043,-0.045,-0.036,-0.0344,-0.0331,-0.029,-0.0294,-0.0278,-0.0452,-0.0452,-0.0452,0,0,-0.027,-0.0302,-0.0302,-0.0352,-0.0396,-0.0394,-0.0472,-0.0502,-0.0475,-0.0552,-0.0517,-0.0524,-0.0485,-0.0415,-0.0385,-0.041,-0.0289,-0.0317,-0.0307,-0.0272,-0.0281,-0.0265,-0.0251,-0.0444,-0.0446,-0.0447,0,0,-0.0222,-0.0252,-0.0238,-0.027,-0.0324,-0.0356,-0.0361,-0.0429,-0.0429,-0.0418,-0.0424,-0.0391,-0.0364,-0.0311,-0.0277,-0.0159,-0.0215,-0.0128,-0.0017,-0.0022,-0.001,0.0001,-0.0017,-0.0009,-0.011,-0.011,-0.011,0,-0.0193,-0.018,-0.0245,-0.0238,-0.0245,-0.0326,-0.0301,-0.031,-0.0358,-0.0329,-0.0374,-0.029,-0.0295,-0.0164,-0.0106,-0.0126,-0.0147,-0.0115,-0.001,0.0001,0.001,-0.001,-0.0002,-0.0106,-0.0106,-0.0107,-0.0107,0,-0.0129,-0.0123,-0.0116,-0.0117,-0.0134,-0.0131,-0.0148,-0.0142,-0.016,-0.0161,-0.008,-0.01,-0.004,-0.002,-0.0032,0.008,0.0035,-0.0014,-0.0083,0.003,0.0003,0.001,-0.01,-0.0101,-0.0102,-0.0103,0,0,-0.0056,-0.0066,-0.0063,-0.0046,-0.0069,-0.0072,-0.0004,0.0034,0.0095,0.0079,0.016,0.0226,0.019,0.0233,0.0211,0.0222,0.0245,0.0147,0.0145,0.0089,0.0223,0.0196,0.02,0.0191,0.0193,0.0195,0.0168,0,0.0011,0.006,0.0039,0.0102,0.0125,0.0099,0.0164,0.0199,0.0218,0.0277,0.03,0.036,0.03,0.0313,0.0322,0.0269,0.0273,0.0257,0.0162,0.0161,0.0087,0.0212,0.0236,0.0216,0.0175,0.0176,0.0177,0,0.0084,0.0103,0.0175,0.0211,0.0222,0.0257,0.034,0.0389,0.0473,0.0487,0.0549,0.0538,0.0601,0.0493,0.0475,0.0461,0.037,0.0308,0.0303,0.0272,0.015,0.0107,0.023,0.0103,0.0187,0.0187,0.0186,0,0.0154,0.0201,0.0265,0.0275,0.0312,0.0355,0.0386,0.046,0.053,0.0618,0.0668,0.0712,0.073,0.0652,0.0539,0.05,0.0479,0.0392,0.0289,0.0284,0.0292,0.0284,0.0254,0.0374,0.0374,0.0374,0.0374,0,0.0229,0.0276,0.0303,0.033,0.0423,0.0423,0.0532,0.0572,0.066,0.0771,0.0774,0.0862,0.0766,0.0741,0.0605,0.0495,0.0524,0.0355,0.0298,0.0315,0.0311,0.0188,0.0121,0.0373,0.0373,0.0373,0.0373,0,0.0285,0.0307,0.0368,0.0419,0.0448,0.0508,0.0596,0.0683,0.0749,0.0887,0.0922,0.0989,0.0967,0.0851,0.0727,0.0588,0.0399,0.0403,0.043,0.038,0.016,0.0097,0.0041,-0.0015,0.0301,0.0301,0.0301,0,0.0323,0.0365,0.0421,0.0463,0.0484,0.0572,0.0643,0.0721,0.0816,0.0975,0.1058,0.1097,0.1154,0.0984,0.076,0.0546,0.0404,0.0392,0.0335,0.0202,0.0089,0.0026,-0.0022,0.0357,0.0357,0.0357,0.0357,0,0.0397,0.0407,0.0442,0.0514,0.0587,0.069,0.0793,0.0883,0.1001,0.113,0.1294,0.1356,0.1229,0.1075,0.0781,0.0617,0.0323,0.0385,0.0252,0.0168,0.0098,-0.0003,0.0298,0.0357,0.0357,0.0357,0.0357,0.0357,0.0438,0.0473,0.0513,0.0578,0.0666,0.08,0.0906,0.1036,0.1215,0.1433,0.1465,0.1586,0.1329,0.0971,0.0716,0.0302,0.0312,0.0182,0.0124,0.0078,0.0021,0.0327,0.0313,0.0313,0.0312,0.0312,0.0312,0,0.05,0.0536,0.0588,0.0679,0.0778,0.0824,0.1014,0.1147,0.1369,0.1539,0.1697,0.1645,0.132,0.0928,0.0381,0.009,-0.0032,-0.0043,-0.0117,-0.015,0.0132,0.0131,0.0073,0.0073,0.0073,0.0073,0.0073,0.0073,0.0548,0.0598,0.0612,0.0769,0.0846,0.1038,0.1159,0.1356,0.1506,0.1752,0.1836,0.1869,0.1595,0.0685,0.0041,-0.0122,-0.0357,-0.0363,-0.0478,-0.0288,-0.0271,-0.0256,-0.0273,-0.0415,-0.0416,-0.0729,-0.0732,-0.0734]}],[{"header":{"parameterUnit":"m.s-1","parameterCategory":2,"la1":30.2991,"la2":30.254,"lo1":-89.0895,"lo2":-89.0444,"dy":0.0017,"dx":0.0017,"nx":28,"ny":28,"refTime":"2023-08-10T09:00:00:Z","depth":"2","parameterNumber":2,"parameterNumberName":"U-component_of_CURRENTS"},"data":[0,0,0,0,0,0,0,0,0,0,0,0,0,0,0,0,0,0,0,0,0,0,0,0,0,0,0,0,0,0,0,0,0,0,0,0,0,0,0,0,0,0,0,0,0,0,0,0,0,0,0,0,0,0,0,0,0,0,-0.095,-0.0949,0,-0.0859,-0.0858,-0.0857,-0.0853,-0.0854,-0.0855,-0.0856,-0.0495,-0.0485,-0.0474,0,0,0,0,0,0,0,0,0,0,0,0,0,-0.1013,-0.1012,-0.095,-0.0949,-0.0947,-0.0859,-0.0858,-0.0857,-0.0853,-0.0854,-0.0855,-0.0857,-0.0498,-0.0486,-0.0473,0,0,0,0,0,0,0,0,0,0,0,0,0,-0.0961,-0.1012,-0.095,-0.0934,-0.0932,-0.086,-0.0858,-0.0857,-0.0853,-0.0854,-0.0856,-0.0857,-0.0503,-0.0487,-0.0472,-0.0344,0,0,-0.0423,-0.0416,0,0,0,0,0,0,0,0,-0.0964,-0.0959,-0.0938,-0.0935,-0.0932,-0.0868,-0.0748,-0.0672,-0.0852,-0.0884,-0.0856,-0.0858,-0.0593,-0.057,-0.0555,-0.0327,-0.0312,-0.0422,-0.0412,-0.0406,-0.0401,0,0,0,0,0,0,0,-0.0968,-0.0962,-0.0915,-0.0936,-0.0933,-0.0895,-0.089,-0.0734,-0.0727,-0.0881,-0.088,-0.0868,-0.059,-0.057,-0.0545,-0.0306,-0.0422,-0.0408,-0.0399,-0.0392,0.0166,0.0171,0,0,0,0,0,0,-0.0981,-0.0966,-0.0918,-0.0912,-0.0951,-0.0893,-0.0888,-0.0888,-0.0734,-0.0714,-0.0867,-0.0869,-0.0597,-0.0564,-0.0532,-0.0323,-0.0406,-0.0391,-0.0382,0.016,0.0167,0.0173,0,0,0,0,0,0,-0.0983,-0.0978,-0.0921,-0.0936,-0.0926,-0.0891,-0.0891,-0.0885,-0.0841,-0.0727,-0.0702,-0.0826,-0.0596,-0.0554,-0.035,-0.031,-0.0384,-0.0369,0.0154,0.0162,0.017,0.0067,0,0,0,0,0,0,-0.0986,-0.098,-0.0974,-0.0937,-0.0925,-0.0831,-0.0889,-0.0883,-0.0833,-0.0833,-0.0681,-0.0653,-0.0594,-0.0374,-0.0335,-0.029,-0.0357,0.0147,0.0158,0.0167,0.0063,0.007,0.0076,0,0,0,0,0,-0.0988,-0.0964,-0.0975,-0.0968,-0.0923,-0.0827,-0.0815,-0.0798,-0.0829,-0.0771,-0.0679,-0.0656,-0.0283,-0.0356,-0.0311,-0.0262,0.0142,0.0155,0.0166,0.0061,0.0069,0.0076,0,0,0,0,0,0,-0.0986,-0.0961,-0.0972,-0.0943,-0.0872,-0.0825,-0.0762,-0.0773,-0.0665,-0.0628,-0.0577,-0.0536,-0.0335,-0.0255,-0.0339,-0.006,-0.0068,-0.0047,-0.0164,-0.0154,-0.0148,-0.0198,-0.0344,0,0,0,0,0,-0.0985,-0.0968,-0.0916,-0.0889,-0.0833,-0.0797,-0.0758,-0.0721,-0.0632,-0.0591,-0.0501,-0.0373,-0.0251,-0.0174,-0.0015,0.0139,0.0181,0.0208,0.0214,0.0217,0.0218,0.0211,0.0211,0.0212,0.0212,0.0212,0,0,-0.0986,-0.0963,-0.0959,-0.0887,-0.0822,-0.0738,-0.0772,-0.0649,-0.0601,-0.0551,-0.0415,-0.0311,-0.0189,-0.0026,0.0068,0.0037,0.0277,0.0233,0.0233,0.0232,0.0222,0.022,0.0218,0.022,0.0219,0.0217,0,0,-0.0951,-0.0927,-0.0885,-0.081,-0.0687,-0.0644,-0.0604,-0.05,-0.0462,-0.0305,-0.0282,-0.0186,0.0054,0.0073,0.0121,0.0272,0.033,0.037,0.0328,0.032,0.0315,0.0312,0.048,0.0491,0.0339,0.0339,0.0339,0,-0.092,-0.0907,-0.0848,-0.0761,-0.0707,-0.0605,-0.0524,-0.0449,-0.0307,-0.0286,-0.0235,-0.0029,0.0071,0.0129,0.0183,0.0269,0.0351,0.0257,0.0311,0.0308,0.0306,0.0478,0.0492,0.0336,0.0336,0.0336,0.0337,0,-0.0873,-0.0827,-0.0762,-0.0657,-0.0578,-0.0456,-0.0354,-0.0251,-0.0187,-0.0165,-0.0036,0.0067,0.0155,0.0202,0.0247,0.0285,0.0388,0.0324,0.0247,0.0296,0.0482,0.0497,0.0331,0.0332,0.0333,0.0334,0,0,-0.085,-0.0755,-0.0729,-0.0686,-0.0506,-0.0434,-0.0306,-0.0214,-0.0182,-0.0043,-0.0045,0.0116,0.0136,0.0196,0.0233,0.0212,0.03,0.0274,0.0275,0.037,0.0438,0.0259,0.0262,0.0226,0.0226,0.0226,0.061,0,-0.0805,-0.0699,-0.0667,-0.0544,-0.0454,-0.0348,-0.0273,-0.0172,-0.0085,-0.003,0.0009,0.0096,0.0141,0.0189,0.0174,0.0237,0.0325,0.0213,0.0442,0.0453,0.0219,0.0263,0.0264,0.0579,0.0626,0.0629,0.0631,0,-0.0751,-0.0698,-0.0566,-0.0515,-0.0467,-0.0386,-0.0268,-0.0183,-0.0092,-0.003,0.0018,0.008,0.0109,0.0141,0.0258,0.0194,0.0368,0.0419,0.0432,0.0292,0.0295,0.0527,0.0606,0.0658,0.0656,0.0654,0.0652,0,-0.0716,-0.0645,-0.0553,-0.0499,-0.0373,-0.0327,-0.029,-0.0181,-0.0123,-0.0024,0.0028,0.006,0.0123,0.021,0.0363,0.0338,0.0505,0.0465,0.0518,0.0518,0.0573,0.0569,0.0638,0.0638,0.0637,0.0636,0.0635,0,-0.0644,-0.0588,-0.0538,-0.0426,-0.0401,-0.0323,-0.0257,-0.0196,-0.0115,-0.0053,0.0031,0.0072,0.0139,0.0241,0.0378,0.0475,0.0542,0.0537,0.0553,0.0556,0.0546,0.0624,0.0617,0.065,0.0647,0.0644,0.0642,0,-0.0584,-0.0504,-0.0374,-0.0289,-0.032,-0.0258,-0.0263,-0.0233,-0.012,-0.003,0.0016,0.0107,0.0176,0.0289,0.0448,0.0496,0.0598,0.0686,0.0756,0.0761,0.0665,0.0651,0.0747,0.0743,0.0739,0.0736,0.0734,0,-0.0533,-0.0445,-0.0305,-0.0269,-0.0228,-0.0221,-0.0243,-0.0199,-0.0164,-0.0017,0.0015,0.0117,0.0171,0.0302,0.037,0.0559,0.0614,0.0704,0.0557,0.0645,0.0654,0.0645,0.0636,0.0736,0.0734,0.0732,0.0731,0,-0.0498,-0.039,-0.0345,-0.0241,-0.0212,-0.0227,-0.0264,-0.0239,-0.0136,-0.007,0.0023,0.007,0.0178,0.0255,0.0424,0.0497,0.0596,0.0656,0.075,0.0589,0.0628,0.0637,0.0632,0.0714,0.0716,0.0717,0.0718,0.0718,-0.0526,-0.05,-0.0397,-0.0323,-0.0273,-0.0228,-0.0238,-0.0255,-0.0197,-0.0033,-0.0013,0.0133,0.0199,0.0347,0.0429,0.0491,0.0465,0.0541,0.0553,0.0565,0.0373,0.0387,0.0413,0.0413,0.0412,0.0412,0.0412,0,-0.0634,-0.0618,-0.0557,-0.0412,-0.0348,-0.0274,-0.0268,-0.025,-0.0193,0.0002,0.0095,0.0206,0.0298,0.0398,0.0499,0.0494,0.0539,0.0471,0.06,0.0612,0.0624,0.044,0.0498,0.0499,0.0499,0.05,0,0,-0.0714,-0.07,-0.0656,-0.0539,-0.042,-0.0318,-0.0265,-0.0222,-0.0095,0.007,0.0253,0.0341,0.0421,0.0511,0.0486,0.0558,0.0583,0.0516,0.0438,0.0602,0.0617,0.0635,0.0356,0,0,0,0,0]},{"header":{"parameterUnit":"m.s-1","parameterCategory":2,"la1":30.2991,"la2":30.254,"lo1":-89.0895,"lo2":-89.0444,"dy":0.0017,"dx":0.0017,"nx":28,"ny":28,"refTime":"2023-08-10T09:00:00:Z","depth":"2","parameterNumber":3,"parameterNumberName":"V-component_of_CURRENTS"},"data":[0,0,0,0,0,0,0,0,0,0,0,0,0,0,0,0,0,0,0,0,0,0,0,0,0,0,0,0,0,0,0,0,0,0,0,0,0,0,0,0,0,0,0,0,0,0,0,0,0,0,0,0,0,0,0,0,0,0,0.0029,0.0029,0,0.006,0.006,0.0059,0.0093,0.0094,0.0095,0.0096,-0.0086,-0.0091,-0.0097,0,0,0,0,0,0,0,0,0,0,0,0,0,-0.0105,-0.0103,0.0028,0.0029,0.003,0.006,0.006,0.0059,0.0092,0.0094,0.0095,0.0096,-0.0084,-0.0091,-0.0098,0,0,0,0,0,0,0,0,0,0,0,0,0,-0.0064,-0.0102,0.0028,0.0055,0.0058,0.006,0.006,0.0059,0.0092,0.0094,0.0095,0.0097,-0.0082,-0.009,-0.0099,-0.0184,0,0,-0.0125,-0.0129,0,0,0,0,0,0,0,0,-0.0066,-0.006,0.005,0.0053,0.0057,0.0079,-0.0053,-0.003,0.0092,0.0073,0.0096,0.0097,-0.0047,-0.0059,-0.0062,-0.0192,-0.02,-0.0126,-0.0131,-0.0135,-0.0137,0,0,0,0,0,0,0,-0.0069,-0.0061,0.0034,0.0051,0.0055,0.0031,0.0039,-0.0049,-0.0006,0.0074,0.0078,0.0091,-0.0048,-0.0054,-0.0067,-0.0202,-0.0126,-0.0133,-0.0139,-0.0142,-0.0367,-0.0367,0,0,0,0,0,0,-0.0056,-0.0063,0.0034,0.0036,0.0005,0.0033,0.0041,0.0065,0.0,-0.0004,0.009,0.0093,-0.004,-0.0057,-0.0073,-0.0174,-0.0135,-0.0143,-0.0148,-0.0366,-0.0367,-0.0368,0,0,0,0,0,0,-0.0059,-0.0047,0.0032,-0.0009,0.0,0.0035,0.0061,0.0065,0.0048,0.0016,0.0006,0.0068,-0.0039,-0.0061,-0.0151,-0.0181,-0.0147,-0.0155,-0.0365,-0.0366,-0.0367,-0.038,0,0,0,0,0,0,-0.0063,-0.0048,-0.004,-0.0007,0.0004,0.0012,0.006,0.0065,0.0058,0.0061,-0.0008,-0.0021,-0.0039,-0.0138,-0.016,-0.0193,-0.0162,-0.0364,-0.0366,-0.0367,-0.0379,-0.0382,-0.0384,0,0,0,0,0,-0.0067,-0.0067,-0.0039,-0.0028,0.002,0.0011,0.0011,0.0037,0.0055,0.0028,0.0001,-0.0019,-0.0161,-0.0147,-0.0172,-0.0208,-0.0363,-0.0365,-0.0367,-0.0378,-0.0381,-0.0384,0,0,0,0,0,0,-0.0115,-0.0061,-0.0031,-0.001,-0.0006,0.0018,-0.0001,0.0017,-0.0023,-0.0033,-0.0053,-0.0071,-0.0163,-0.0185,-0.0167,-0.0271,-0.0258,-0.0265,-0.0258,-0.0262,-0.0264,-0.0212,-0.0169,0,0,0,0,0,-0.0119,-0.0104,-0.0067,-0.0052,-0.0058,-0.0036,-0.0038,-0.003,-0.0047,-0.0061,-0.0104,-0.0145,-0.0189,-0.0223,-0.0285,-0.036,-0.0344,-0.0389,-0.0392,-0.0394,-0.0366,-0.0369,-0.0369,-0.0373,-0.0373,-0.0373,0,0,-0.0126,-0.0098,-0.0085,-0.0062,-0.0059,-0.0081,-0.0037,-0.0063,-0.0077,-0.0085,-0.0153,-0.0187,-0.0216,-0.0284,-0.0324,-0.0306,-0.0387,-0.0396,-0.0398,-0.0368,-0.0371,-0.037,-0.037,-0.0374,-0.0374,-0.0374,0,0,-0.0149,-0.0122,-0.0125,-0.0139,-0.0142,-0.0135,-0.0149,-0.0158,-0.0163,-0.0224,-0.0218,-0.0254,-0.0351,-0.0346,-0.0357,-0.0417,-0.0415,-0.0446,-0.041,-0.0415,-0.0413,-0.0412,-0.0395,-0.0393,-0.0429,-0.0429,-0.0429,0,-0.0164,-0.0143,-0.0134,-0.0161,-0.0163,-0.0165,-0.0185,-0.0207,-0.0243,-0.0235,-0.0257,-0.0316,-0.0366,-0.0374,-0.0376,-0.0424,-0.0412,-0.0398,-0.0416,-0.0414,-0.0413,-0.0396,-0.0392,-0.043,-0.043,-0.043,-0.043,0,-0.019,-0.0189,-0.0209,-0.0222,-0.024,-0.027,-0.0284,-0.0315,-0.0323,-0.0313,-0.0349,-0.0388,-0.0396,-0.0424,-0.0419,-0.0423,-0.0414,-0.0435,-0.0403,-0.0413,-0.0395,-0.0391,-0.0432,-0.0431,-0.0431,-0.0431,0,0,-0.0179,-0.0211,-0.0219,-0.0218,-0.0272,-0.0277,-0.0326,-0.0323,-0.0304,-0.0366,-0.0337,-0.0398,-0.0388,-0.0395,-0.0403,-0.0388,-0.0384,-0.0393,-0.0393,-0.0365,-0.0371,-0.0406,-0.0405,-0.0407,-0.0406,-0.0405,-0.0363,0,-0.0195,-0.0216,-0.0242,-0.0274,-0.0281,-0.031,-0.0332,-0.0343,-0.0343,-0.034,-0.0353,-0.0357,-0.0388,-0.0376,-0.038,-0.0394,-0.0372,-0.0391,-0.0372,-0.0371,-0.0394,-0.0403,-0.0421,-0.0388,-0.036,-0.0359,-0.0359,0,-0.0208,-0.0207,-0.0216,-0.0239,-0.0248,-0.0272,-0.0255,-0.028,-0.0281,-0.0279,-0.028,-0.0298,-0.0304,-0.0326,-0.0339,-0.035,-0.0348,-0.0348,-0.0348,-0.0364,-0.0399,-0.0374,-0.0382,-0.0352,-0.0352,-0.0353,-0.0353,0,-0.0153,-0.0197,-0.0176,-0.0194,-0.0224,-0.022,-0.0239,-0.0238,-0.0215,-0.022,-0.0193,-0.0235,-0.0236,-0.0265,-0.0291,-0.0314,-0.0284,-0.0332,-0.0348,-0.035,-0.035,-0.0354,-0.0306,-0.0306,-0.0306,-0.0306,-0.0306,0,-0.015,-0.0149,-0.0138,-0.0133,-0.0108,-0.0154,-0.0118,-0.0139,-0.0122,-0.0077,-0.0144,-0.0123,-0.0216,-0.0224,-0.0262,-0.0295,-0.0275,-0.0327,-0.0342,-0.0358,-0.0363,-0.0319,-0.0321,-0.0304,-0.0305,-0.0305,-0.0305,0,-0.0122,-0.0113,-0.0096,-0.0091,-0.0077,-0.0064,-0.0052,-0.0014,-0.0014,0.0044,0.0046,-0.0025,-0.0089,-0.0148,-0.0194,-0.0247,-0.0276,-0.0271,-0.0275,-0.0293,-0.0345,-0.0348,-0.0324,-0.0324,-0.0325,-0.0326,-0.0326,0,-0.0108,-0.0078,-0.0044,-0.0005,-0.0005,0.0026,0.0063,0.005,0.0095,0.0109,0.0141,0.0085,0.0008,-0.0097,-0.0207,-0.0289,-0.0261,-0.0305,-0.0371,-0.0329,-0.0347,-0.0349,-0.0351,-0.037,-0.0371,-0.0372,-0.0372,0,-0.0084,-0.0063,-0.0046,0.0059,0.0109,0.0146,0.0188,0.0233,0.0239,0.0252,0.0237,0.0166,0.0024,-0.0154,-0.0265,-0.0307,-0.032,-0.0325,-0.0266,-0.0377,-0.0375,-0.0392,-0.0392,-0.0379,-0.0378,-0.0378,-0.0377,-0.0377,-0.0064,-0.0043,0.0024,0.0111,0.0186,0.0255,0.0296,0.0317,0.0342,0.0311,0.0256,0.015,-0.0047,-0.0273,-0.0342,-0.0368,-0.0397,-0.0408,-0.0405,-0.0401,-0.0428,-0.0429,-0.0446,-0.0446,-0.0446,-0.0446,-0.0445,0,-0.0048,0.0004,0.0086,0.0177,0.0263,0.0324,0.0394,0.0373,0.038,0.0311,0.0221,0.0036,-0.0167,-0.0269,-0.0357,-0.0457,-0.044,-0.0434,-0.0414,-0.041,-0.0405,-0.0431,-0.045,-0.045,-0.0449,-0.0449,0,0,-0.0036,0.0029,0.0079,0.0234,0.0346,0.0479,0.0537,0.0438,0.0381,0.0226,0.018,-0.0045,-0.0155,-0.0238,-0.0384,-0.0386,-0.0351,-0.0371,-0.037,-0.0329,-0.0322,-0.0408,-0.0447,0,0,0,0,0]}],[{"header":{"parameterUnit":"m.s-1","parameterCategory":2,"la1":30.2991,"la2":30.254,"lo1":-89.0895,"lo2":-89.0444,"dy":0.0017,"dx":0.0017,"nx":28,"ny":28,"refTime":"2023-08-10T09:00:00:Z","depth":"4","parameterNumber":2,"parameterNumberName":"U-component_of_CURRENTS"},"data":[0,0,0,0,0,0,0,0,0,0,0,0,0,0,0,0,0,0,0,0,0,0,0,0,0,0,0,0,0,0,0,0,0,0,0,0,0,0,0,0,0,0,0,0,0,0,0,0,0,0,0,0,0,0,0,0,0,0,-0.041,-0.041,0,-0.0415,-0.0415,-0.0415,-0.0415,-0.0415,-0.0415,-0.0415,-0.0533,-0.0537,-0.054,0,0,0,0,0,0,0,0,0,0,0,0,0,-0.0399,-0.0399,-0.041,-0.041,-0.0409,-0.0415,-0.0415,-0.0415,-0.0415,-0.0415,-0.0415,-0.0415,-0.0532,-0.0536,-0.054,0,0,0,0,0,0,0,0,0,0,0,0,0,-0.0405,-0.0399,-0.041,-0.0409,-0.0409,-0.0415,-0.0415,-0.0415,-0.0415,-0.0415,-0.0415,-0.0415,-0.0531,-0.0536,-0.0541,-0.0577,0,0,-0.0556,-0.0558,0,0,0,0,0,0,0,0,-0.0405,-0.0406,-0.0409,-0.0409,-0.0409,-0.0413,-0.0454,-0.0474,-0.0415,-0.0414,-0.0415,-0.0415,-0.0503,-0.051,-0.0512,-0.0582,-0.0587,-0.0556,-0.0559,-0.0562,-0.0563,0,0,0,0,0,0,0,-0.0404,-0.0405,-0.0413,-0.0409,-0.0409,-0.0408,-0.0409,-0.0458,-0.0463,-0.0415,-0.0414,-0.0413,-0.0504,-0.0507,-0.0515,-0.0589,-0.0556,-0.0561,-0.0564,-0.0566,-0.0697,-0.0698,0,0,0,0,0,0,-0.0401,-0.0405,-0.0413,-0.0413,-0.0405,-0.0409,-0.041,-0.0413,-0.046,-0.0466,-0.0413,-0.0413,-0.0499,-0.0509,-0.052,-0.0566,-0.0562,-0.0566,-0.0569,-0.0697,-0.0698,-0.0698,0,0,0,0,0,0,-0.0401,-0.0402,-0.0413,-0.0408,-0.0409,-0.0409,-0.0413,-0.0413,-0.0421,-0.0458,-0.0466,-0.042,-0.0499,-0.0513,-0.0557,-0.0571,-0.0568,-0.0573,-0.0696,-0.0697,-0.0698,-0.066,0,0,0,0,0,0,-0.0401,-0.0402,-0.0403,-0.0408,-0.0409,-0.0424,-0.0413,-0.0414,-0.0419,-0.0419,-0.0467,-0.0477,-0.05,-0.0549,-0.0562,-0.0578,-0.0577,-0.0696,-0.0697,-0.0698,-0.0661,-0.0659,-0.0658,0,0,0,0,0,-0.0401,-0.04,-0.0403,-0.0404,-0.0411,-0.0424,-0.0425,-0.0425,-0.042,-0.043,-0.045,-0.0476,-0.0564,-0.0553,-0.0568,-0.0586,-0.0695,-0.0696,-0.0697,-0.0661,-0.066,-0.0658,0,0,0,0,0,0,-0.0398,-0.04,-0.0404,-0.0405,-0.0419,-0.0424,-0.0423,-0.0429,-0.0451,-0.0452,-0.0484,-0.0496,-0.0538,-0.057,-0.0557,-0.0627,-0.0635,-0.0639,-0.0602,-0.0601,-0.06,-0.0594,-0.0581,0,0,0,0,0,-0.0398,-0.0396,-0.0408,-0.041,-0.0414,-0.0422,-0.0425,-0.0433,-0.045,-0.0458,-0.0492,-0.0526,-0.0555,-0.0582,-0.0617,-0.0663,-0.0673,-0.0684,-0.0683,-0.0682,-0.0687,-0.0705,-0.0706,-0.0702,-0.0702,-0.0702,0,0,-0.0395,-0.0397,-0.0396,-0.0409,-0.0414,-0.0431,-0.0424,-0.0435,-0.0454,-0.0472,-0.0509,-0.0527,-0.0564,-0.0601,-0.0625,-0.0632,-0.0684,-0.0683,-0.0682,-0.0688,-0.0707,-0.0707,-0.0707,-0.0703,-0.0702,-0.0702,0,0,-0.0393,-0.0394,-0.0395,-0.041,-0.0424,-0.0435,-0.0442,-0.0461,-0.047,-0.0507,-0.0514,-0.0534,-0.06,-0.0613,-0.063,-0.065,-0.0673,-0.0671,-0.0669,-0.0685,-0.0685,-0.0686,-0.0676,-0.0675,-0.0675,-0.0675,-0.0675,0,-0.0397,-0.0398,-0.04,-0.0414,-0.0423,-0.044,-0.0456,-0.0473,-0.0508,-0.0513,-0.052,-0.0573,-0.0602,-0.0627,-0.0627,-0.0648,-0.0654,-0.0666,-0.0682,-0.0683,-0.0684,-0.0674,-0.0674,-0.0673,-0.0674,-0.0674,-0.0674,0,-0.04,-0.0407,-0.0409,-0.0432,-0.0448,-0.0463,-0.0489,-0.0509,-0.0523,-0.0536,-0.0562,-0.0587,-0.0612,-0.0625,-0.0634,-0.0656,-0.0655,-0.0671,-0.068,-0.0681,-0.0671,-0.0672,-0.0671,-0.0672,-0.0672,-0.0672,0,0,-0.0401,-0.0409,-0.0414,-0.042,-0.0458,-0.047,-0.0501,-0.0524,-0.0528,-0.0566,-0.0568,-0.0607,-0.0606,-0.0624,-0.0636,-0.0653,-0.065,-0.0666,-0.0668,-0.0645,-0.067,-0.0557,-0.0547,-0.0671,-0.0672,-0.0672,-0.0651,0,-0.0407,-0.0425,-0.0431,-0.0456,-0.0466,-0.0488,-0.0511,-0.0537,-0.0552,-0.0562,-0.0579,-0.059,-0.0611,-0.0609,-0.0631,-0.0645,-0.0656,-0.0654,-0.0683,-0.0683,-0.0573,-0.0545,-0.0674,-0.0652,-0.0652,-0.0652,-0.0652,0,-0.0415,-0.0422,-0.0445,-0.0452,-0.0458,-0.0479,-0.05,-0.0523,-0.0542,-0.0547,-0.0562,-0.057,-0.0588,-0.0605,-0.0639,-0.0638,-0.0655,-0.0668,-0.0668,-0.0579,-0.0571,-0.0658,-0.0654,-0.0654,-0.0654,-0.0654,-0.0654,0,-0.0415,-0.0429,-0.0443,-0.0454,-0.0476,-0.0482,-0.0494,-0.0517,-0.0521,-0.0533,-0.0524,-0.0555,-0.0552,-0.0595,-0.061,-0.0631,-0.0636,-0.0668,-0.0582,-0.0574,-0.0702,-0.0702,-0.0697,-0.0697,-0.0697,-0.0697,-0.0697,0,-0.0422,-0.0429,-0.044,-0.0454,-0.0452,-0.0474,-0.0476,-0.0487,-0.0495,-0.0486,-0.0512,-0.0497,-0.0552,-0.0555,-0.0595,-0.0566,-0.0623,-0.0567,-0.0559,-0.0683,-0.0682,-0.07,-0.0701,-0.0697,-0.0697,-0.0697,-0.0697,0,-0.0421,-0.0434,-0.0448,-0.0462,-0.0456,-0.0462,-0.0457,-0.0454,-0.0465,-0.0451,-0.045,-0.0452,-0.0436,-0.047,-0.0508,-0.0513,-0.052,-0.0502,-0.0598,-0.0598,-0.0456,-0.0455,-0.0407,-0.0403,-0.04,-0.0397,-0.0394,0,-0.042,-0.0431,-0.045,-0.0445,-0.0447,-0.0445,-0.0435,-0.0442,-0.0435,-0.0415,-0.04,-0.0369,-0.0367,-0.0323,-0.037,-0.0393,-0.0406,-0.0406,-0.0463,-0.0428,-0.0426,-0.0431,-0.0435,-0.0388,-0.0387,-0.0386,-0.0385,0,-0.0413,-0.0432,-0.0442,-0.0435,-0.0427,-0.0404,-0.0388,-0.0375,-0.0375,-0.0386,-0.0326,-0.0296,-0.0253,-0.0258,-0.025,-0.0288,-0.0405,-0.037,-0.0379,-0.0433,-0.0405,-0.0407,-0.0415,-0.0373,-0.0375,-0.0376,-0.0377,0,-0.0409,-0.041,-0.0427,-0.0411,-0.0396,-0.0354,-0.0354,-0.0319,-0.0307,-0.0292,-0.0266,-0.0238,-0.0237,-0.02,-0.0209,-0.0201,-0.0222,-0.0251,-0.0268,-0.0282,-0.0248,-0.0194,-0.0076,0,0,0,0,0,-0.0393,-0.0385,-0.0382,-0.0359,-0.0343,-0.0323,-0.0311,-0.0315,-0.0313,-0.0257,-0.026,-0.0216,-0.0169,-0.0159,-0.0129,-0.0161,-0.0234,-0.0125,-0.0279,-0.0304,-0.0318,-0.0289,0,0,0,0,0,0,-0.0378,-0.0385,-0.0377,-0.0315,-0.0279,-0.0245,-0.0234,-0.0235,-0.0208,-0.0211,-0.019,-0.0188,-0.0156,-0.0173,-0.0116,-0.0115,-0.0204,-0.0116,-0.0115,-0.0296,-0.0309,-0.032,-0.0296,0,0,0,0,0]},{"header":{"parameterUnit":"m.s-1","parameterCategory":2,"la1":30.2991,"la2":30.254,"lo1":-89.0895,"lo2":-89.0444,"dy":0.0017,"dx":0.0017,"nx":28,"ny":28,"refTime":"2023-08-10T09:00:00:Z","depth":"4","parameterNumber":3,"parameterNumberName":"V-component_of_CURRENTS"},"data":[0,0,0,0,0,0,0,0,0,0,0,0,0,0,0,0,0,0,0,0,0,0,0,0,0,0,0,0,0,0,0,0,0,0,0,0,0,0,0,0,0,0,0,0,0,0,0,0,0,0,0,0,0,0,0,0,0,0,-0.0138,-0.0137,0,-0.0065,-0.0064,-0.0063,-0.0038,-0.0039,-0.0039,-0.004,0.002,0.0022,0.0024,0,0,0,0,0,0,0,0,0,0,0,0,0,-0.015,-0.0151,-0.0138,-0.0137,-0.0136,-0.0065,-0.0064,-0.0062,-0.0038,-0.0039,-0.0039,-0.004,0.0019,0.0021,0.0024,0,0,0,0,0,0,0,0,0,0,0,0,0,-0.0116,-0.0151,-0.0138,-0.0117,-0.0115,-0.0065,-0.0064,-0.0062,-0.0038,-0.0039,-0.004,-0.004,0.0018,0.0021,0.0024,0.0058,0,0,0.0034,0.0035,0,0,0,0,0,0,0,0,-0.0118,-0.0116,-0.0121,-0.0118,-0.0116,-0.0063,-0.0046,-0.0023,-0.0038,-0.0065,-0.004,-0.0041,-0.001,-0.0005,0.0014,0.0061,0.0063,0.0034,0.0036,0.0037,0.0038,0,0,0,0,0,0,0,-0.0121,-0.0118,-0.0107,-0.012,-0.0117,-0.0075,-0.0072,-0.0041,-0.0033,-0.0063,-0.0061,-0.0056,-0.0009,0.0011,0.0015,0.0064,0.0034,0.0036,0.0038,0.004,0.0023,0.002,0,0,0,0,0,0,-0.0139,-0.0121,-0.0109,-0.0105,-0.0121,-0.0075,-0.0071,-0.0078,-0.0033,-0.0027,-0.0056,-0.0055,0.0006,0.0012,0.0017,-0.0003,0.0037,0.004,0.0042,0.0025,0.0022,0.002,0,0,0,0,0,0,-0.014,-0.0139,-0.0112,-0.0112,-0.0106,-0.0075,-0.0082,-0.0076,-0.0061,-0.0028,-0.0022,-0.0048,0.0006,0.0013,0.0028,0.0002,0.0041,0.0044,0.0028,0.0024,0.0021,-0.0003,0,0,0,0,0,0,-0.014,-0.014,-0.0148,-0.0114,-0.0107,-0.0087,-0.0081,-0.0074,-0.0058,-0.0057,-0.0019,-0.0014,0.0006,0.0023,0.0031,0.0007,0.0046,0.003,0.0026,0.0022,0.0001,-0.0007,-0.0013,0,0,0,0,0,-0.0141,-0.0146,-0.0149,-0.0148,-0.0121,-0.0087,-0.0079,-0.0057,-0.0057,-0.0047,-0.0035,-0.0016,-0.0001,0.0025,0.0034,0.0011,0.0033,0.0027,0.0022,0.0004,-0.0005,-0.0013,0,0,0,0,0,0,-0.0149,-0.0143,-0.0146,-0.0149,-0.0125,-0.0084,-0.0072,-0.0059,-0.0038,-0.0041,-0.0016,-0.0009,-0.0013,-0.0003,0.0024,-0.0016,0.0008,0.0004,-0.001,-0.0018,-0.0025,-0.0047,0.0049,0,0,0,0,0,-0.0159,-0.0165,-0.0145,-0.0145,-0.0137,-0.0107,-0.0091,-0.0076,-0.0054,-0.0045,-0.0021,-0.0019,-0.0025,-0.0022,-0.0013,-0.0013,-0.0016,-0.0037,-0.0044,-0.0049,-0.0067,-0.0085,-0.0094,0.0003,0.0003,0.0003,0,0,-0.0162,-0.0158,-0.0162,-0.0147,-0.0128,-0.0122,-0.0098,-0.0075,-0.0082,-0.0041,-0.0039,-0.0026,-0.003,-0.004,-0.0044,-0.0034,-0.0081,-0.0056,-0.006,-0.0075,-0.0091,-0.01,-0.0108,-0.0001,-0.0,0.0,0,0,-0.0157,-0.0169,-0.0167,-0.0156,-0.0134,-0.0125,-0.0123,-0.0088,-0.0088,-0.0081,-0.0072,-0.0078,-0.0066,-0.0079,-0.0089,-0.0132,-0.0111,-0.0137,-0.0186,-0.0203,-0.021,-0.0217,-0.0232,-0.024,-0.0146,-0.0146,-0.0146,0,-0.0163,-0.0165,-0.0157,-0.015,-0.0152,-0.0134,-0.0134,-0.0131,-0.0098,-0.0108,-0.0094,-0.011,-0.0097,-0.0138,-0.0161,-0.0145,-0.0149,-0.0142,-0.0209,-0.0215,-0.0221,-0.0236,-0.0244,-0.0148,-0.0148,-0.0147,-0.0147,0,-0.0156,-0.0161,-0.0157,-0.0163,-0.0161,-0.0154,-0.016,-0.0162,-0.0167,-0.0167,-0.0193,-0.0179,-0.0195,-0.0201,-0.0191,-0.0241,-0.0226,-0.0204,-0.0177,-0.0232,-0.0244,-0.0252,-0.015,-0.015,-0.0149,-0.0149,0,0,-0.0176,-0.0157,-0.0162,-0.0169,-0.0172,-0.0171,-0.02,-0.0222,-0.0251,-0.0243,-0.0279,-0.0299,-0.0287,-0.03,-0.0286,-0.0307,-0.0345,-0.0278,-0.0278,-0.0277,-0.0382,-0.0345,-0.0349,-0.0323,-0.0325,-0.0326,-0.0371,0,-0.0178,-0.0172,-0.017,-0.0189,-0.0194,-0.0207,-0.0238,-0.0261,-0.0281,-0.0308,-0.0329,-0.0349,-0.0329,-0.0332,-0.0353,-0.0342,-0.0368,-0.0335,-0.0345,-0.0346,-0.0292,-0.0359,-0.0331,-0.0377,-0.0378,-0.038,-0.0381,0,-0.0187,-0.0183,-0.0193,-0.0214,-0.022,-0.0238,-0.0299,-0.0318,-0.0365,-0.0379,-0.041,-0.0409,-0.0449,-0.0415,-0.045,-0.0426,-0.0418,-0.0411,-0.0411,-0.0377,-0.0325,-0.0314,-0.0395,-0.0394,-0.0393,-0.0392,-0.0391,0,-0.0214,-0.0213,-0.0227,-0.0233,-0.025,-0.0275,-0.0296,-0.0342,-0.0371,-0.042,-0.044,-0.048,-0.0494,-0.0505,-0.0487,-0.0472,-0.0512,-0.0485,-0.0453,-0.045,-0.0453,-0.0446,-0.0523,-0.0523,-0.0523,-0.0522,-0.0522,0,-0.0232,-0.0245,-0.0241,-0.025,-0.0291,-0.0296,-0.0348,-0.0375,-0.0415,-0.0449,-0.0472,-0.0497,-0.0515,-0.0528,-0.0516,-0.051,-0.0537,-0.0485,-0.0468,-0.0464,-0.0457,-0.0458,-0.045,-0.0524,-0.0524,-0.0523,-0.0523,0,-0.0254,-0.0249,-0.0266,-0.0283,-0.0299,-0.0329,-0.037,-0.0405,-0.0434,-0.0478,-0.0493,-0.0524,-0.0539,-0.0545,-0.0557,-0.054,-0.0538,-0.0524,-0.0529,-0.0507,-0.0463,-0.0456,-0.052,-0.0519,-0.0518,-0.0518,-0.0517,0,-0.0258,-0.0266,-0.029,-0.0315,-0.0324,-0.0363,-0.0396,-0.0423,-0.0447,-0.0485,-0.0503,-0.0529,-0.0543,-0.0544,-0.0545,-0.0542,-0.0523,-0.0532,-0.0505,-0.049,-0.0467,-0.0461,-0.0455,-0.0516,-0.0516,-0.0516,-0.0516,0,-0.027,-0.028,-0.0295,-0.0335,-0.0372,-0.041,-0.0443,-0.0458,-0.0483,-0.0504,-0.0511,-0.0515,-0.0528,-0.0531,-0.0525,-0.0516,-0.0537,-0.0525,-0.0527,-0.0502,-0.0486,-0.0463,-0.0458,-0.0514,-0.0514,-0.0514,-0.0514,0,-0.0283,-0.0298,-0.0319,-0.0357,-0.0404,-0.0441,-0.0458,-0.0474,-0.0493,-0.0509,-0.0507,-0.0517,-0.0527,-0.0516,-0.051,-0.0502,-0.0497,-0.049,-0.0493,-0.0495,-0.0463,-0.0438,-0.0458,0,0,0,0,0,-0.029,-0.0307,-0.0341,-0.0383,-0.0427,-0.0452,-0.0486,-0.0494,-0.0501,-0.0501,-0.0499,-0.0501,-0.0493,-0.0496,-0.0483,-0.0504,-0.0505,-0.0489,-0.05,-0.0502,-0.0504,-0.0466,0,0,0,0,0,0,-0.0298,-0.0325,-0.0336,-0.0394,-0.0426,-0.0474,-0.0495,-0.0502,-0.0493,-0.0494,-0.0489,-0.0486,-0.0481,-0.0495,-0.0478,-0.0478,-0.048,-0.0488,-0.0487,-0.0501,-0.0503,-0.0505,-0.0466,0,0,0,0,0]}]]